| time (UTC) | temp F | wind direction | speed knots | gust knots | rain 1hr in | rain 24hr in | rain mn in | humidity % | barometer mb |
| 20260505013746 | 61 | 203 | 2.6 | 5.2 | 0.00 | 0.00 | 0.00 | 38 | 1005.0 |
| 20260505012806 | 61 | 225 | 0.9 | 3.5 | 0.00 | 0.00 | 0.00 | 37 | 1004.6 |
| 20260505010746 | 62 | 248 | 1.7 | 5.2 | 0.00 | 0.00 | 0.00 | 36 | 1004.5 |
| 20260505005746 | 62 | 225 | 1.7 | 5.2 | 0.00 | 0.00 | 0.00 | 35 | 1004.2 |
| 20260505004746 | 63 | 180 | 1.7 | 5.2 | 0.00 | 0.00 | 0.00 | 35 | 1004.2 |
| 20260505003746 | 63 | 225 | 2.6 | 6.1 | 0.00 | 0.00 | 0.00 | 34 | 1003.8 |
| 20260505002746 | 63 | 225 | 1.7 | 5.2 | 0.00 | 0.00 | 0.00 | 34 | 1003.3 |
| 20260505001746 | 64 | 203 | 0.9 | 2.6 | 0.00 | 0.00 | 0.00 | 33 | 1003.3 |
| 20260505000746 | 64 | 225 | 1.7 | 4.3 | 0.00 | 0.00 | 0.00 | 31 | 1003.1 |
| 20260504235746 | 65 | 225 | 1.7 | 5.2 | 0.00 | 0.00 | 0.00 | 30 | 1002.7 |
| 20260504234746 | 66 | 225 | 1.7 | 5.2 | 0.00 | 0.00 | 0.00 | 28 | 1002.8 |
| 20260504233746 | 67 | 225 | 2.6 | 7.0 | 0.00 | 0.00 | 0.00 | 28 | 1002.5 |
| 20260504232746 | 68 | 203 | 0.9 | 3.5 | 0.00 | 0.00 | 0.00 | 23 | 1002.1 |
| 20260504231806 | 69 | 203 | 1.7 | 5.2 | 0.00 | 0.00 | 0.00 | 22 | 1002.1 |
| 20260504230746 | 69 | 0.0 | 2.6 | 0.00 | 0.00 | 0.00 | 22 | 1002.0 | |
| 20260504225806 | 70 | 225 | 1.7 | 4.3 | 0.00 | 0.00 | 0.00 | 22 | 1001.9 |
| 20260504223746 | 70 | 270 | 0.9 | 2.6 | 0.00 | 0.00 | 0.00 | 21 | 1001.7 |
| 20260504222806 | 70 | 225 | 1.7 | 5.2 | 0.00 | 0.00 | 0.00 | 20 | 1001.8 |
| 20260504221746 | 70 | 248 | 1.7 | 3.5 | 0.00 | 0.00 | 0.00 | 21 | 1001.8 |
| 20260504220746 | 70 | 203 | 0.9 | 2.6 | 0.00 | 0.00 | 0.00 | 21 | 1001.8 |
| 20260504215746 | 70 | 248 | 0.9 | 3.5 | 0.00 | 0.00 | 0.00 | 21 | 1001.8 |
| 20260504214746 | 70 | 270 | 1.7 | 3.5 | 0.00 | 0.00 | 0.00 | 21 | 1001.8 |
| 20260504213746 | 70 | 248 | 1.7 | 2.6 | 0.00 | 0.00 | 0.00 | 21 | 1001.8 |
| 20260504212746 | 70 | 203 | 2.6 | 7.8 | 0.00 | 0.00 | 0.00 | 20 | 1001.9 |
| 20260504211745 | 71 | 225 | 1.7 | 5.2 | 0.00 | 0.00 | 0.00 | 20 | 1001.9 |
| 20260504210745 | 72 | 270 | 1.7 | 5.2 | 0.00 | 0.00 | 0.00 | 19 | 1001.8 |
| 20260504205746 | 71 | 203 | 1.7 | 5.2 | 0.00 | 0.00 | 0.00 | 20 | 1001.8 |
| 20260504204745 | 71 | 248 | 3.5 | 6.1 | 0.00 | 0.00 | 0.00 | 20 | 1001.8 |
| 20260504203745 | 71 | 248 | 2.6 | 5.2 | 0.00 | 0.00 | 0.00 | 19 | 1001.8 |
| 20260504202746 | 71 | 225 | 3.5 | 7.0 | 0.00 | 0.00 | 0.00 | 20 | 1001.8 |
| 20260504201745 | 71 | 225 | 2.6 | 5.2 | 0.00 | 0.00 | 0.00 | 20 | 1001.8 |
| 20260504200805 | 70 | 270 | 2.6 | 6.1 | 0.00 | 0.00 | 0.00 | 20 | 1001.9 |
| 20260504195746 | 70 | 225 | 1.7 | 6.1 | 0.00 | 0.00 | 0.00 | 19 | 1002.0 |
| 20260504194745 | 71 | 225 | 1.7 | 6.1 | 0.00 | 0.00 | 0.00 | 18 | 1002.0 |
| 20260504193805 | 71 | 203 | 2.6 | 6.1 | 0.00 | 0.00 | 0.00 | 17 | 1002.0 |
| 20260504192745 | 72 | 203 | 3.5 | 6.1 | 0.00 | 0.00 | 0.00 | 18 | 1002.0 |
| 20260504191745 | 71 | 248 | 3.5 | 5.2 | 0.00 | 0.00 | 0.00 | 17 | 1002.0 |
| 20260504190805 | 71 | 225 | 1.7 | 6.1 | 0.00 | 0.00 | 0.00 | 17 | 1002.2 |
| 20260504185745 | 71 | 248 | 3.5 | 7.0 | 0.00 | 0.00 | 0.00 | 17 | 1002.3 |
| 20260504184745 | 71 | 225 | 3.5 | 9.6 | 0.00 | 0.00 | 0.00 | 18 | 1002.3 |
| 20260504183745 | 71 | 225 | 2.6 | 6.1 | 0.00 | 0.00 | 0.00 | 17 | 1002.5 |
| 20260504182745 | 71 | 203 | 2.6 | 6.1 | 0.00 | 0.00 | 0.00 | 18 | 1002.7 |
| 20260504181745 | 70 | 248 | 2.6 | 7.0 | 0.00 | 0.00 | 0.00 | 18 | 1002.7 |
| 20260504180745 | 70 | 270 | 5.2 | 11.3 | 0.00 | 0.00 | 0.00 | 18 | 1002.5 |
| 20260504175745 | 70 | 248 | 3.5 | 6.1 | 0.00 | 0.00 | 0.00 | 18 | 1002.6 |
| 20260504174805 | 70 | 248 | 3.5 | 7.0 | 0.00 | 0.00 | 0.00 | 18 | 1002.6 |
| 20260504173745 | 70 | 225 | 3.5 | 7.0 | 0.00 | 0.00 | 0.00 | 18 | 1002.6 |
| 20260504172745 | 68 | 225 | 3.5 | 7.0 | 0.00 | 0.00 | 0.00 | 19 | 1003.0 |
| 20260504171745 | 68 | 225 | 4.3 | 9.6 | 0.00 | 0.00 | 0.00 | 18 | 1003.0 |
| 20260504170805 | 68 | 225 | 4.3 | 7.0 | 0.00 | 0.00 | 0.00 | 20 | 1002.9 |
| 20260504150746 | 65 | 225 | 2.6 | 5.2 | 0.00 | 0.00 | 0.00 | 23 | 1004.1 |
| 20260504140806 | 61 | 203 | 1.7 | 6.1 | 0.00 | 0.00 | 0.00 | 28 | 1004.6 |
| 20260504130746 | 56 | 270 | 1.7 | 2.6 | 0.00 | 0.01 | 0.00 | 34 | 1005.6 |
| 20260504081745 | 45 | 0.0 | 0.0 | 0.00 | 0.01 | 0.00 | 48 | 1005.6 | |
| 20260504080745 | 45 | 0.0 | 0.0 | 0.00 | 0.01 | 0.00 | 48 | 1005.6 | |
| 20260504050746 | 43 | 315 | 0.9 | 2.6 | 0.00 | 0.01 | 0.00 | 45 | 1005.6 |
| 20260504045747 | 43 | 315 | 0.9 | 1.7 | 0.00 | 0.01 | 0.00 | 46 | 1005.6 |
| 20260504044746 | 43 | 315 | 0.9 | 1.7 | 0.00 | 0.01 | 0.00 | 45 | 1005.6 |
| 20260504043747 | 43 | 315 | 0.9 | 1.7 | 0.00 | 0.01 | 0.00 | 43 | 1005.5 |
| 20260504042746 | 43 | 315 | 0.9 | 2.6 | 0.00 | 0.01 | 0.00 | 44 | 1005.5 |
| 20260504041746 | 43 | 0.0 | 0.0 | 0.00 | 0.01 | 0.00 | 44 | 1005.5 | |
| 20260504040746 | 43 | 0.0 | 0.0 | 0.00 | 0.01 | 0.00 | 43 | 1005.4 | |
| 20260504035746 | 43 | 0.0 | 0.0 | 0.00 | 0.01 | 0.01 | 44 | 1005.3 | |
| 20260504034746 | 43 | 0.0 | 0.0 | 0.00 | 0.01 | 0.01 | 44 | 1005.3 | |
| 20260504033806 | 44 | 0.0 | 0.0 | 0.00 | 0.01 | 0.01 | 42 | 1005.2 | |
| 20260504032746 | 44 | 0.0 | 0.0 | 0.00 | 0.01 | 0.01 | 41 | 1005.1 | |
| 20260504031746 | 45 | 0.0 | 0.0 | 0.00 | 0.01 | 0.01 | 41 | 1005.1 | |
| 20260504030746 | 45 | 0.0 | 0.0 | 0.00 | 0.01 | 0.01 | 38 | 1005.1 | |
| 20260504025806 | 45 | 0.0 | 0.0 | 0.00 | 0.01 | 0.01 | 40 | 1005.1 | |
| 20260504024746 | 46 | 0.0 | 0.0 | 0.00 | 0.01 | 0.01 | 38 | 1005.1 | |
| 20260504023746 | 46 | 0.0 | 0.0 | 0.00 | 0.01 | 0.01 | 38 | 1005.1 | |
| 20260504022746 | 46 | 0.0 | 0.0 | 0.00 | 0.01 | 0.01 | 37 | 1005.0 | |
| 20260504021746 | 46 | 0.0 | 0.0 | 0.00 | 0.01 | 0.01 | 37 | 1005.0 | |
| 20260504020745 | 46 | 0.0 | 0.0 | 0.00 | 0.01 | 0.01 | 37 | 1005.0 | |
| 20260504015745 | 46 | 0.0 | 0.0 | 0.00 | 0.01 | 0.01 | 37 | 1004.9 | |
| 20260504014745 | 46 | 0.0 | 0.0 | 0.00 | 0.01 | 0.01 | 38 | 1004.9 |